This is the latest recevied weather packets stored in our database for station/object GW4288. If no packets are shown the sender has not sent any weather packets the latest 1 day(s).
| Time | Temp. | Humidity | Pressure | Rain* | Wind** | Luminosity | Snow |
|---|---|---|---|---|---|---|---|
| 1778149866 | 18.33° C | 68% | 1012.6 hPa | 0 mm | - | 113 W/m² | - |
| 1778149750 | 18.33° C | 68% | 1012.7 hPa | 0 mm | - | 119 W/m² | - |
| 1778149618 | 18.33° C | 67% | 1012.6 hPa | 0 mm | - | 124 W/m² | - |
| 1778149497 | 18.33° C | 68% | 1012.7 hPa | 0 mm | - | 132 W/m² | - |
| 1778149379 | 18.33° C | 68% | 1012.7 hPa | 0 mm | - | 142 W/m² | - |
| 1778149285 | 18.89° C | 66% | 1012.6 hPa | 0 mm | - | 138 W/m² | - |
| 1778149139 | 18.89° C | 66% | 1012.6 hPa | 0 mm | - | 146 W/m² | - |
| 1778149019 | 18.89° C | 66% | 1012.3 hPa | 0 mm | - | 172 W/m² | - |
| 1778148899 | 18.89° C | 66% | 1012.5 hPa | 0 mm | - | 166 W/m² | - |
| 1778148780 | 18.89° C | 66% | 1012.5 hPa | 0 mm | - | 170 W/m² | - |
| 1778148666 | 18.89° C | 63% | 1012.4 hPa | 0 mm | - | 184 W/m² | - |
| 1778148539 | 18.89° C | 63% | 1012.4 hPa | 0 mm | - | 206 W/m² | - |
| 1778148419 | 18.89° C | 67% | 1012.4 hPa | 0 mm | - | 230 W/m² | - |
| 1778148300 | 18.89° C | 67% | 1012.4 hPa | 0 mm | - | 210 W/m² | - |
| 1778148179 | 18.89° C | 67% | 1012.4 hPa | 0 mm | - | 195 W/m² | - |
| 1778148071 | 18.89° C | 67% | 1012.3 hPa | 0 mm | - | 192 W/m² | - |
| 1778147939 | 18.89° C | 67% | 1012.5 hPa | 0 mm | - | 203 W/m² | - |
| 1778147819 | 18.89° C | 67% | 1012.4 hPa | 0 mm | - | 206 W/m² | - |
| 1778147700 | 18.89° C | 67% | 1012.2 hPa | 0 mm | - | 208 W/m² | - |
| 1778147609 | 18.89° C | 68% | 1012.5 hPa | 0 mm | - | 223 W/m² | - |
| 1778147594 | 18.89° C | 67% | 1012.3 hPa | 0 mm | - | 217 W/m² | - |
| 1778147339 | 18.89° C | 67% | 1012.4 hPa | 0 mm | - | 194 W/m² | - |
| 1778147219 | 18.33° C | 67% | 1012.2 hPa | 0 mm | - | 204 W/m² | - |
| 1778147100 | 18.33° C | 67% | 1012.2 hPa | 0 mm | - | 210 W/m² | - |
| 1778146979 | 18.89° C | 67% | 1012.3 hPa | 0 mm | - | 187 W/m² | - |
* Rain latest hour (hover to see other rain measurements)
** Current wind speed in m/s (hover to see current wind gust speed)